Martha's Vineyard, MA

9:53 PM EDT on October 19, 2017 (GMT -0400)
Martha's Vineyard

Weather History for KMVY - June, 2013

Change the Weather History Date:

Sunday, June 23, 2013

  Actual Average Record
Temperature  
Mean Temperature 68 °F -  
Max Temperature 73 °F 74 °F 86 °F (1949)
Min Temperature 62 °F 58 °F 41 °F (1952)
Cooling Degree Days 2    
Growing Degree Days 18 (Base 50)    
Moisture  
Dew Point 64 °F    
Average Humidity 88    
Maximum Humidity 100    
Minimum Humidity 71    
Precipitation  
Precipitation 0.00 in - - ()
Sea Level Pressure  
Sea Level Pressure 30.15 in    
Wind  
Wind Speed 9 mph (SW)    
Max Wind Speed 17 mph    
Max Gust Speed 23 mph    
Visibility 7 miles    
Events Fog    
Averages and records for this station are not official NWS values.
T = Trace of Precipitation, MM = Missing Value Source: NWS Daily Summary

Daily Weather History Graph

Daily Weather History Graph

Search for Another Location

Airport or City:

Trip Planner

Search our weather history database for the weather conditions in past years. The results will help you decide how hot, cold, wet, or windy it might be!

Date:

Astronomy

Jun. 23, 2013 Rise Set
Actual Time 5:09 AM EDT 8:19 PM EDT
Civil Twilight 4:35 AM EDT 8:53 PM EDT
Nautical Twilight 3:52 AM EDT 9:37 PM EDT
Astronomical Twilight 2:59 AM EDT 10:29 PM EDT
Moon 8:28 PM EDT (6/23) 5:24 AM EDT (6/23)
Length of Visible Light 16h 18m
Length of Day
15h 10m
Full, 100% of the Moon is Illuminated
Jun 23
Full
Jun 30
Last Quarter
Jul 8
New
Jul 15
First Quarter
Jul 22
Full

Hourly Weather History & Observations

Time (EDT) Temp. Dew Point Humidity Pressure Visibility Wind Dir Wind Speed Gust Speed Precip Events Conditions
12:53 AM 64.0 °F 62.1 °F 93% 30.20 in 10.0 mi SW 6.9 mph - N/A   Clear
1:53 AM 64.0 °F 62.1 °F 93% 30.20 in 10.0 mi SW 6.9 mph - N/A   Clear
2:53 AM 63.0 °F 62.1 °F 97% 30.18 in 9.0 mi SW 5.8 mph - N/A   Clear
3:28 AM 62.6 °F 62.6 °F 100% 30.18 in 9.0 mi SW 5.8 mph - N/A   Scattered Clouds
3:36 AM 64.4 °F 62.6 °F 94% 30.17 in 9.0 mi SW 6.9 mph - N/A   Mostly Cloudy
3:53 AM 64.0 °F 63.0 °F 96% 30.17 in 6.0 mi SW 4.6 mph - N/A   Overcast
4:14 AM 64.4 °F 62.6 °F 94% 30.18 in 1.8 mi SW 5.8 mph - N/A   Overcast
4:45 AM 64.4 °F 62.6 °F 94% 30.18 in 3.0 mi SW 6.9 mph - N/A   Overcast
4:53 AM 64.0 °F 63.0 °F 96% 30.18 in 6.0 mi SW 5.8 mph - N/A   Overcast
5:32 AM 64.4 °F 62.6 °F 94% 30.18 in 2.5 mi SW 8.1 mph - N/A   Overcast
5:53 AM 64.0 °F 62.1 °F 93% 30.18 in 5.0 mi SW 8.1 mph - N/A   Overcast
6:14 AM 64.4 °F 62.6 °F 94% 30.18 in 1.8 mi SSW 8.1 mph - N/A   Overcast
6:22 AM 64.4 °F 62.6 °F 94% 30.19 in 0.2 mi SW 8.1 mph - N/A Fog Fog
6:53 AM 64.0 °F 63.0 °F 96% 30.18 in 0.5 mi SW 11.5 mph - N/A Fog Fog
7:01 AM 64.4 °F 62.6 °F 94% 30.18 in 1.0 mi SSW 10.4 mph - N/A   Overcast
7:37 AM 64.4 °F 62.6 °F 94% 30.20 in 10.0 mi SW 8.1 mph - N/A   Mostly Cloudy
7:53 AM 64.9 °F 64.0 °F 97% 30.20 in 10.0 mi SW 9.2 mph - N/A   Partly Cloudy
8:53 AM 69.1 °F 63.0 °F 81% 30.20 in 10.0 mi SW 10.4 mph - N/A   Clear
9:53 AM 71.1 °F 63.0 °F 75% 30.19 in 10.0 mi SSW 15.0 mph - N/A   Clear
10:53 AM 71.1 °F 63.0 °F 75% 30.19 in 10.0 mi SSW 17.3 mph 23.0 mph N/A   Clear
11:53 AM 73.0 °F 64.0 °F 73% 30.17 in 10.0 mi SSW 16.1 mph - N/A   Clear
12:53 PM 73.0 °F 63.0 °F 71% 30.17 in 10.0 mi SW 17.3 mph 23.0 mph N/A   Clear
1:53 PM 73.9 °F 64.0 °F 71% 30.16 in 10.0 mi SSW 15.0 mph - N/A   Partly Cloudy
2:53 PM 73.0 °F 64.9 °F 76% 30.14 in 10.0 mi SW 15.0 mph 23.0 mph N/A   Clear
3:53 PM 73.0 °F 64.0 °F 73% 30.13 in 10.0 mi SW 13.8 mph 21.9 mph N/A   Clear
4:53 PM 71.1 °F 63.0 °F 75% 30.11 in 10.0 mi SW 15.0 mph - N/A   Clear
5:44 PM 71.6 °F 64.4 °F 78% 30.11 in 10.0 mi SW 17.3 mph 21.9 mph N/A   Partly Cloudy
5:53 PM 71.1 °F 64.0 °F 78% 30.11 in 10.0 mi SW 15.0 mph 21.9 mph N/A   Scattered Clouds
6:00 PM 71.6 °F 64.4 °F 78% 30.11 in 10.0 mi SW 15.0 mph 20.7 mph N/A   Mostly Cloudy
6:30 PM 69.8 °F 64.4 °F 83% 30.10 in 10.0 mi SW 13.8 mph 19.6 mph N/A   Overcast
6:53 PM 69.1 °F 64.9 °F 87% 30.10 in 10.0 mi SW 13.8 mph - N/A   Overcast
7:53 PM 68.0 °F 64.9 °F 90% 30.10 in 10.0 mi SW 12.7 mph - N/A   Overcast
8:02 PM 68.0 °F 64.4 °F 88% 30.11 in 10.0 mi SW 12.7 mph - N/A   Overcast
8:53 PM 68.0 °F 66.0 °F 93% 30.09 in 5.0 mi SW 11.5 mph 19.6 mph N/A   Overcast
9:03 PM 68.0 °F 66.2 °F 94% 30.10 in 1.8 mi SW 11.5 mph - N/A   Overcast
9:35 PM 69.8 °F 68.0 °F 94% 30.11 in 3.0 mi SW 11.5 mph 19.6 mph N/A   Overcast
9:53 PM 69.1 °F 68.0 °F 96% 30.12 in 9.0 mi SW 10.4 mph 18.4 mph N/A   Overcast
10:53 PM 70.0 °F 68.0 °F 93% 30.12 in 10.0 mi WSW 10.4 mph - N/A   Overcast
11:43 PM 68.0 °F 66.2 °F 94% 30.09 in 1.8 mi SW 12.7 mph 20.7 mph N/A   Overcast
11:53 PM 68.0 °F 66.9 °F 96% 30.09 in 1.0 mi SW 13.8 mph 23.0 mph N/A   Overcast